Regional Weather Roundup
Issued by NWS Upton, NY

Current Version | Previous Version | Text Only | Print | Product List | Glossary On
Versions: 1 2 3 4 5 6 7 8 9 10 11 12 13 14 15 16 17 18 19 20 21 22 23 24 25 26 27 28 29 30 31 32 33 34 35 36 37 38 39 40 41 42 43 44 45 46 47 48 49 50
000 ASUS41 KOKX 152005 RWROKX REGIONAL WEATHER ROUNDUP NATIONAL WEATHER SERVICE NEW YORK NY 400 PM EDT MON SEP 15 2014 NOTE: "FAIR" INDICATES FEW OR NO CLOUDS BELOW 12,000 FEET WITH NO SIGNIFICANT WEATHER AND/OR OBSTRUCTIONS TO VISIBILITY. NYZ071-072-176-178-NJZ106-104-152100- NEW YORK CITY METRO AREA CITY SKY/WX TMP DP RH WIND PRES REMARKS CENTRAL PARK SUNNY 71 42 35 CALM 30.15F LAGUARDIA APRT MOSUNNY 71 42 35 N7 30.12F KENNEDY INTL MOSUNNY 69 42 37 S10 30.15F NEWARK/LIBERTY MOSUNNY 71 43 36 S3 30.13F BRNX BOT. GARD N/A 72 43 35 S2 30.13F TETERBORO SUNNY 73 42 32 VRB5 30.11F $$ NYZ177-179-078>081-152100- LONG ISLAND NEW YORK CITY SKY/WX TMP DP RH WIND PRES REMARKS FARMINGDALE SUNNY 69 47 45 S12 30.14F ISLIP MOSUNNY 70 42 36 N7 30.12F SHIRLEY SUNNY 70 42 36 W8 30.14F WESTHAMPTON SUNNY 66 45 46 VRB7 30.16F MONTAUK POINT N/A 66 43 43 SW5 30.16F $$ NYZ052-065-067-152100- HUDSON VALLEY CITY SKY/WX TMP DP RH WIND PRES REMARKS WHITE PLAINS MOSUNNY 69 42 37 VRB6 30.13F NEWBURGH MOSUNNY 68 46 45 VRB5 30.14F MONTGOMERY MOSUNNY 70 45 40 VRB3 30.11F POUGHKEEPSIE MOSUNNY 68 43 40 S6 30.12F ALBANY MOSUNNY 66 40 38 N3 30.14F $$ NJZ001-105-106-008-010-013-015-019>022-104-152100- NEW JERSEY CITY SKY/WX TMP DP RH WIND PRES REMARKS NEWARK/LIBERTY MOSUNNY 71 43 36 S3 30.13F TETERBORO SUNNY 73 42 32 VRB5 30.11F CALDWELL SUNNY 70 43 37 SW7 30.13F MORRISTOWN MOSUNNY 72 43 35 CALM 30.14F SOMERVILLE SUNNY 72 43 35 VRB5 30.12F LINDEN FAIR 75 45 33 N3 30.14F SUSSEX SUNNY 69 46 43 CALM 30.13F ANDOVER N/A 68 45 43 VRB3 30.13F TRENTON SUNNY 70 44 39 VRB3 30.13F MILLVILLE SUNNY 73 48 41 VRB3 30.14F ATLANTIC CITY MOSUNNY 67 54 63 E7 30.14F WRIGHTSTOWN SUNNY 69 48 46 VRB3 30.12F TOMS RIVER SUNNY 70 50 49 SE6 30.14F BELMAR MOSUNNY 66 46 48 SE7 30.14F $$ PAZ047>061-062-071-152100- EASTERN PENNSYLVANIA CITY SKY/WX TMP DP RH WIND PRES REMARKS PHILADELPHIA MOSUNNY 71 45 39 S5 30.15F ALLENTOWN SUNNY 69 45 41 CALM 30.15F SCRANTON SUNNY 68 42 38 SW6 30.13F $$ CTZ002-004>006-009-010-012-RIZ004-006-007-MAZ004-011-015-152100- SOUTHERN NEW ENGLAND IN CT CITY SKY/WX TMP DP RH WIND PRES REMARKS BRADLEY INTL MOSUNNY 69 39 33 NW6 30.13F HARTFORD SUNNY 69 42 37 W9 30.13F DANBURY SUNNY 66 43 43 VRB7 30.16F WTRBRY/OXFORD MOSUNNY 64 43 45 MISG 30.16F BRIDGEPORT SUNNY 69 45 41 S10 30.14F MERIDEN SUNNY 69 41 36 NW9 30.14S NEW HAVEN MOSUNNY 68 45 43 SW6 30.14F CHESTER FAIR 64 46 52 SW6 30.14F GROTON SUNNY 65 46 50 SW10 30.13F WILLIMANTIC MOSUNNY 67 43 41 VRB7 30.14F IN RI CITY SKY/WX TMP DP RH WIND PRES REMARKS PROVIDENCE MOSUNNY 66 48 52 S10 30.13F BLOCK ISLAND SUNNY 66 45 45 S8 30.15F WESTERLY MOSUNNY 66 44 45 SW8 30.15S IN MA CITY SKY/WX TMP DP RH WIND PRES REMARKS BOSTON MOSUNNY 64 43 46 VRB5 30.13F WORCESTER PTSUNNY 60 41 49 VRB3 30.15F WESTFIELD SUNNY 66 40 38 CALM 30.14S PROVINCETOWN MOSUNNY 63 48 59 NE6 30.15F NANTUCKET PTSUNNY 65 49 56 SW7 30.14F $$ ANZ330-335-338-340-345-350-353-355-152100- COASTAL MARINE OBSERVATIONS STATION/POSITION TIME SKY/WX TEMP WIND PRES VSBY WAVE AIR SEA DIR/SP/G HT/PER (UTC) (F) (DEG/KT/KT) (MB) (MI) (FT/S) NY HARB ENTRANCE NOT AVBL 4S FIRE IS NOT AVBL 23SW MTP 2000 N/A 2/ 6 HUDSON CANYON 2000 67 76 240/ 4/ 8 1020.4 2/ 7 EXECUTION ROCKS 2000 69 72 190/ 4/ 6 N/A WESTERN LI SOUND 2000 67 210/ 8/ 10 N/A 1 CENTRAL LI SOUND 1900 64 72 240/ 8/ 12 N/A 1 EASTERN LI SOUND 1900 65 68 240/ 8/ 10 N/A ROBBINS REEF 2000 66 160/ 8/ 10 1019.2 $$ >>>>>>>>>>>>>>>>>>>>>>>>>>>> KEY <<<<<<<<<<<<<<<<<<<<<<<<<<< > < > SKY/WX - SKY CONDITION/PRESENT WEATHER < > TMP - TEMPERATURE IN FAHRENHEIT < > DP - DEWPOINT IN FAHRENHEIT < > RH - RELATIVE HUMIDITY IN PERCENT < > WIND - DIRECTION AND SPEED IN MPH < > PRES - MEAN SEA LEVEL PRESSURE IN INCHES OF HG < > WCI - WIND CHILL INDEX < > VSB - VISIBILITY IN MILES < > HX - HEAT INDEX < > TC - TEMPERATURE IN CELSIUS < > VRB - VARIABLE WIND DIRECTION < > < >>>>>>>>>>>>>>>>>>>>>>>>>>>> KEY <<<<<<<<<<<<<<<<<<<<<<<<<<<

USA.gov is the U.S. government's official web portal to all federal, state and local government web resources and services.